Regional Weather Roundup
Issued by NWS Pendleton, OR

Home | Current Version | Previous Version | Text Only | Print | Product List | Glossary On
Versions: 1 2 3 4 5 6 7 8 9 10 11 12 13 14 15 16 17 18 19 20 21 22 23 24 25 26 27 28 29 30 31 32 33 34 35 36 37 38 39 40 41 42 43 44 45 46 47 48 49 50
250
ASUS46 KPDT 290604
RWRPDT
PENDLETON REGIONAL WEATHER ROUNDUP
NATIONAL WEATHER SERVICE PENDLETON OREGON
1100 PM PDT THU APR 28 2016

NOTE: FAIR INDICATES FEW OR NO CLOUDS BELOW 12,000 FEET WITH NO
SIGNIFICANT WEATHER AND/OR OBSTRUCTIONS TO VISIBILITY.

# INDICATES UNOFFICIAL STATION AND DATA

WAZ520-290710-
EAST SLOPES OF WASHINGTON CASCADES

CITY            SKY/WX      TMP DP  RH  WIND    PRES   REMARKS
#CLE ELUM HS    N/A         48  38  68  NW3     29.98S
#CLE ELUM 2NW   N/A         47  38  71  W1      N/A
#CLE ELUM LAKE  N/A         46  39  76  CALM    30.00S
#GLENWOOD       N/A         39  35  85  CALM    30.00F
#MANASTASH CYN  N/A         46  34  63  CALM    29.95F
#NELSON 3SW     N/A         47  38  71  CALM    30.21F
#NILE           N/A         44  37  76  CALM    29.29F
#TEANAWAY 4NE   N/A         44  40  86  NE2     N/A
#TROUT LAKE 1NE N/A         47  40  76  W5      30.02S
#TROUT LAKE 1E  N/A         49  41  74  CALM    29.99S
$$

WAZ521-290710-
SIMCOE HIGHLANDS

CITY            SKY/WX      TMP DP  RH  WIND    PRES   REMARKS
#BICKLETON HS   N/A         45  31  58  CALM    N/A
#CENTERVILLE 1SWN/A         48  40  74  W15     29.96F WCI 42
#GOLDENDALE 1NE N/A         48  33  56  SW2     N/A
#GOODNOE HILLS  N/A         52  41  66  W16     29.88S
#LYLE 6NE       N/A         49  42  77  SW9     30.00F
$$

WAZ026-290710-
KITTITAS VALLEY

CITY            SKY/WX      TMP DP  RH  WIND    PRES   REMARKS
ELLENSBURG AP   CLEAR       51  38  61  NW18    29.97F
6HR MIN TEMP:   51; 6HR MAX TEMP:   65;

YTC-OPS AREA    MOCLDY      45  36  70  W33G41  29.90S WCI 35
6HR MIN TEMP:   45; 6HR MAX TEMP:   62;

#ELLENSBURG CWU N/A         51  39  63  N13     29.90F
#ELLENSBURG 3NE N/A         49  40  71  NW7     29.97F
#ELLENSBURG     N/A         53  42  66  NW8     N/A
#KITTITAS 3S    N/A         50  40  68  W5      29.95S
#THORP 6N       N/A         47  39  74  NW15G30 30.01S WCI 41
$$

WAZ027-290710-
YAKIMA VALLEY

CITY            SKY/WX      TMP DP  RH  WIND    PRES   REMARKS
SUNNYSIDE AP    CLEAR       53  40  61  W6      29.95R
6HR MIN TEMP:   53; 6HR MAX TEMP:   70;

YAKIMA AIRPORT  CLEAR       56  38  51  W9      29.97S
6HR MIN TEMP:   56; 6HR MAX TEMP:   73;

YAKIMA-VAGABOND MOCLDY      54  37  52  N8      29.95F
6HR MIN TEMP:   53; 6HR MAX TEMP:   68;

#DONALD 2NE     N/A         55  21  26  W3      28.79S
#GRANDVIEW      N/A         56  39  53  W1      29.95R
#MABTON         N/A         57  42  57  W6      29.96R
#NACHES 2SW     N/A         52  40  63  W14     29.98R
#TERRACE HTS    N/A         53  38  57  NW6     29.91F
#TOPPENISH      N/A         56  40  55  N7      29.87S
#WEST VALLEY    N/A         55  40  57  NW9G24  29.92F
#W YAKIMA       N/A         54  40  59  W3      29.95S
#WHITE SWAN 5E  N/A         55  40  57  NE1     29.96S
$$

WAZ028-290710-
LOWER COLUMBIA BASIN...WASHINGTON

CITY            SKY/WX      TMP DP  RH  WIND    PRES   REMARKS
PASCO           MOCLDY      58  41  53  N15     29.93R
6HR MIN TEMP:   57; 6HR MAX TEMP:   75;

PROSSER AWOS    N/A         55  43  64  SW7     29.98R
RICHLAND AWOS   CLOUDY      60  45  58  N7      29.94R
#BENTON CITY    N/A         59  43  55  W16G26  29.82S
#CONNELL 5N     N/A         57  47  69  E7      29.91F
#CONNELL 5NW    N/A         56  47  72  E1      29.86F
#ELTOPIA 6NW    N/A         56  44  64  CALM    28.90R
#KAHLOTUS       N/A         53  48  83  SE2     29.91F
#KENNEWICK 3S   N/A         56  44  64  N2      29.92S
#PATERSON       N/A         56  43  62  W7      29.93R
#SAGEMOOR 2W    N/A         55  44  66  W6      29.77R
#TOUCHET 2S     N/A         58  42  55  SW15G26 29.89R
#WEST PASCO     N/A         60  42  51  NW5     29.98S
$$

WAZ029-290710-
FOOTHILLS OF THE BLUES...WASHINGTON

CITY            SKY/WX      TMP DP  RH  WIND    PRES   REMARKS
WALLA WALLA AP  LGT RAIN    57  41  55  S14     29.94R
6HR MIN TEMP:   55; 6HR MAX TEMP:   67; 6HR PCP:  TRACE;

#CLYDE 6NW      N/A         55  48  77  SE1     29.92R
#DAYTON SCHOOL  N/A         54  41  61  NW6     29.97R
#LOWDEN 2SE     N/A         59  43  55  W12     29.90S
#PLEASANT VIEW 1N/A         51  47  86  CALM    29.96S
#PRESCOTT       N/A         55  49  80  N1      29.92R
#SUDBURY        N/A         57  N/A N/A CALM    N/A
#WHITMAN COLLEGEN/A         58  45  62  SE3     29.97S
#WAITSBURG 5S   N/A         54  42  64  CALM    30.01S
#WAITSBURG 8N   N/A         52  27  38  S2      29.79R
#WALLA WALLA U  N/A         59  44  57  CALM    29.93R
#WHITMAN MISSIONN/A         59  44  57  W7      29.93S
$$

WAZ030-290710-
BLUE MOUNTAINS...WASHINGTON

CITY            SKY/WX      TMP DP  RH  WIND    PRES   REMARKS
#DIXIE 5SE      N/A         57  42  57  NW7     29.88F
$$

ORZ009-041-WAZ024-290710-
COLUMBIA RIVER GORGE

CITY            SKY/WX      TMP DP  RH  WIND    PRES   REMARKS
HOOD RIVER AP   CLEAR       54  41  61  CALM    30.06S
THE DALLES AP   CLEAR       57  39  51  W13     30.02S
6HR MIN TEMP:   57; 6HR MAX TEMP:   67;

#ARLINGTON AIRPON/A         53  42  66  W14     29.97R
#CELILO DOT     N/A         57  40  53  SW8     N/A
#MARYHILL 2W    N/A         54  43  66  W3      N/A
#MOSIER 1S      N/A         52  31  44  NW6     30.03S
#MURDOCK        N/A         57  44  62  W17G26  29.98S
#RUFUS DOT      N/A         58  41  53  W20     N/A

$$

ORZ510-290710-
NORTH CENTRAL OREGON

CITY            SKY/WX      TMP DP  RH  WIND    PRES   REMARKS
#ANTELOPE       N/A         38  31  76  CALM    29.93S
#CHENOWITH 1W   N/A         48  39  71  W29     N/A    WCI 39
#COW CYN RST AREN/A         44  34  68  CALM    N/A
#DUFUR 9E       N/A         46  37  71  W7      30.06F
#GRASS VALLEY   N/A         46  37  71  W1      N/A
#GRASS VALLEY 1SN/A         46  37  71  W10     29.96S
#KENT DOT       N/A         42  32  67  N8      N/A
#MAUPIN SCHOOL  N/A         51  38  61  CALM    30.05F
#MORO SCHOOL    N/A         49  42  77  W10     30.02R
#SHANIKO 5WSW   N/A         42  29  60  SW3     N/A
#SHANIKO 4NW    N/A         42  34  73  W8      30.02S
#TYGH VALLEY 2NEN/A         49  38  66  W3      30.02S
#WAPANITIA AIRPON/A         48  39  71  W7      30.03S
#WASCO DOT      N/A         51  40  66  W8      N/A
#WASCO 5NE      N/A         48  40  74  SW9     29.97F
$$

ORZ511-290710-
CENTRAL OREGON

CITY            SKY/WX      TMP DP  RH  WIND    PRES   REMARKS
BEND AIRPORT    PTCLDY      43  32  65  CALM    30.05S
MADRAS AIRPORT  PTCLDY      43  32  65  W3      30.07S
PRINEVILLE AP   PTCLDY      39  32  76  W6      30.05S
REDMOND AIRPORT CLOUDY      45  34  65  NW8     30.05S
6HR MIN TEMP:   44; 6HR MAX TEMP:   60;

#ASHWOOD SCHOOL N/A         45  34  65  CALM    30.01S
#BEND 1SW       N/A         40  34  79  CALM    N/A
#BEND-AWBREY    N/A         42  34  73  CALM    30.04S
#BEND-KIM LN    N/A         43  34  70  CALM    30.02S
#CULVER         N/A         43  34  70  NE1     30.00F
#LAKE BILLY CHINN/A         45  N/A N/A S3      30.13R
#POWELL BUTTE   N/A         43  33  67  W3      29.92S
#PRINEVILLE 3N  N/A         44  35  70  CALM    30.02S
#WARM SPRINGS   N/A         48  36  63  CALM    30.01S

$$


ORZ509-290710-
EAST SLOPES OF OREGON CASCADES

CITY            SKY/WX      TMP DP  RH  WIND    PRES   REMARKS
SISTERS AWOS    N/A         43  34  70  W6      30.02S
#BLUE BOX PASS  N/A         39  N/A N/A NW1     N/A
#BLACK BUTTE RNCN/A         42  36  79  CALM    30.06S
#CAMP SHERMAN   N/A         39  33  79  CALM    30.13S
#LA PINE 4NW    N/A         34  28  78  CALM    30.10F
#LAVA BUTTE DOT N/A         40  29  64  CALM    N/A
#SISTERS AIRPOR N/A         43  39  86  N1      30.17S
#SISTERS ODOT   N/A         46  N/A N/A SW6     N/A
#SISTERS 3N     N/A         42  31  65  CALM    30.03F
#SUNRIVER       N/A         40  34  79  CALM    30.08F
#TUMALO 3W      N/A         43  32  65  NW1     29.92S
#WANOGA BUTTE D N/A         34  29  82  E2      N/A

$$

ORZ044-290710-
LOWER COLUMBIA BASIN...OREGON

CITY            SKY/WX      TMP DP  RH  WIND    PRES   REMARKS
HERMISTON       MOCLDY      55  41  59  SW15    29.95R
6HR MIN TEMP:   55; 6HR MAX TEMP:   73;

#BOARDMAN SCHOOLN/A         56  43  62  SW7     29.96R
#BOARDMAN 8SW   N/A         55  43  64  SW8     29.96R
#ECHO 8SW       N/A         54  40  59  W7      29.97R
#I-84 EX 198 DOTN/A         54  38  55  E17     N/A
#UMATILLA SCHOOLN/A         55  47  74  W3      29.95R
#UMATILLA       N/A         57  41  55  SW10    29.87R
$$

ORZ507-290710-
NORTHERN FOOTHILLS OF THE BLUES

CITY            SKY/WX      TMP DP  RH  WIND    PRES   REMARKS
PENDLETON AIRPT CLOUDY      53  38  57  W26G35  29.95S
6HR MIN TEMP:   53; 6HR MAX TEMP:   67;

#ADAMS 3WNW     N/A         51  40  66  S7      29.96R
#ATHENA         N/A         52  40  63  SW1     29.98R
#CAYUSE         N/A         54  40  59  SW7     29.96R
#HELIX SCHOOL   N/A         52  40  63  W7      29.93F
#HELIX 3N       N/A         50  39  66  N16     29.93S
#HELIX 6SW      N/A         51  40  66  W12     29.96S
#HOLDMAN 5SE    N/A         51  40  66  SW10    29.95S
#HOLDMAN 6E     N/A         50  39  66  NE9     29.75S
#M-F FERNDALE   N/A         58  42  55  CALM    29.93R
#M-F GROVE ELEM N/A         56  39  53  SW7     29.93R
#M-FREEWATER 5SEN/A         56  41  57  S8      29.96R
#PENDLETON DNTN N/A         57  34  42  NW2     29.98S
#PDT AQUATIC CTRN/A         56  34  43  W9      29.99S
#PDT SUNRIDGE   N/A         54  39  57  SW1     29.98R
#PENDLETON 7NW  N/A         53  40  61  W9G26   27.45S
#PILOT ROCK     N/A         53  35  50  S7      29.99R
#TUTUILLA       N/A         53  41  64  CALM    29.98R
#UMAPINE 2E     N/A         58  44  60  SW6     29.90S
#WESTON SCHOOL  N/A         52  37  56  W9      29.88R

$$

ORZ508-290710-
SOUTHERN FOOTHILLS OF THE BLUES

CITY            SKY/WX      TMP DP  RH  WIND    PRES   REMARKS
#AJAX           N/A         48  33  56  S7      27.76F
#CONDON SCHOOL  N/A         44  36  73  SW6     29.97S
#CONDON 5W      N/A         41  33  73  W8      29.98S
#FOSSIL SCHOOL  N/A         44  34  68  CALM    29.97S
#HEPPNER EOC    N/A         48  37  65  SW3     29.94R
#HEPPNER 4NE    N/A         44  36  73  SW5     29.99R
#LEXINGTON 2SE  N/A         47  36  65  S1      29.96S
#MIKKALO        N/A         50  37  61  W7      30.10S
#RUGGS 5NE      N/A         44  35  70  SW8     30.17S
#RUGGS 2SW      N/A         44  36  73  SW7     30.01S

$$

ORZ502-503-290710-
BLUE MOUNTAINS

CITY            SKY/WX      TMP DP  RH  WIND    PRES   REMARKS
MEACHAM         PTCLDY      45  35  68  VRB5    29.99R
6HR MIN TEMP:   41; 6HR MAX TEMP:   55;

#BATTLE MTN DOT N/A         42  40  93  CALM    N/A
#HARDMAN 10S    N/A         61  34  36  N5      30.22S
#HEPPNER 15SE   N/A         40  36  85  CALM    25.54F
#LADD CYN SMT   N/A         48  32  54  NW7     N/A
#LADD CREEK ODOTN/A         50  36  58  NE2     N/A
#LONG CREEK HS  N/A         47  42  83  CALM    N/A
#N POWDER DOT   N/A         47  38  71  NE3     N/A
#PIKES PEAK     N/A         47  37  68  SW23G32 27.99S WCI 39
#TOLLGATE       N/A         39  35  85  SW1     29.85S
#TROY SCHOOL    N/A         53  47  80  CALM    29.77S
#UKIAH          N/A         42  36  79  CALM    29.89S
#WESTON 4E      N/A         46  38  73  S7      29.94R
$$

ORZ505-290710-
JOHN DAY BASIN

CITY            SKY/WX      TMP DP  RH  WIND    PRES   REMARKS
JOHN DAY        MOCLDY      50  37  61  W6      29.99S
#DAYVILLE SCHOOLN/A         53  34  48  NW1     29.96R
#MITCHELL       N/A         43  37  79  CALM    30.17R
#MITCHELL 8NW   N/A         44  32  62  SW3     30.21S
#MONUMENT HS    N/A         54  37  52  CALM    29.96R
#MT. VERNON 5SE N/A         48  36  63  CALM    29.93S
#SPRAY SCHOOL   N/A         54  N/A N/A CALM    N/A
#WINLOCK        N/A         44  34  68  NE10    29.97R
$$

ORZ506-290710-
OCHOCO AND JOHN DAY HIGHLANDS

CITY            SKY/WX      TMP DP  RH  WIND    PRES   REMARKS
#HORSE RIDGE DO N/A         42  31  65  NW8     N/A
#KEYES SMT DOT  N/A         42  33  70  NW6     N/A
#PAULINA SCHOOL N/A         55  35  47  VRB7    29.23R
#PINE MTN OBS   N/A         32  29  89  CALM    N/A
#PRAIRIE CITY   N/A         43  35  73  CALM    29.94S
#SENECA         N/A         44  N/A N/A CALM    N/A
#SENECA 9NW     N/A         43  36  76  CALM    29.95S
$$

ORZ049-290710-
GRANDE RONDE VALLEY

CITY            SKY/WX      TMP DP  RH  WIND    PRES   REMARKS
LA GRANDE       CLOUDY      54  34  47  NW10    29.94S
#COVE           N/A         46  44  93  CALM    29.97F
#COVE SCHOOL    N/A         46  42  86  CALM    29.97S
#COVE 6NW       N/A         39  35  85  CALM    29.63S
#ELGIN 3N       N/A         53  37  54  W2      29.92F
#ELGIN 1E       N/A         54  40  59  CALM    N/A
#ISLAND CITY 4N N/A         51  45  80  CALM    30.12F
#LADD CYN DOT   N/A         51  38  61  NE2     N/A
#UNION 1S       N/A         48  41  77  CALM    29.84S
$$

ORZ050-290710-
WALLOWA COUNTY

CITY            SKY/WX      TMP DP  RH  WIND    PRES   REMARKS
#ENTERPRISE AP  N/A         49  29  46  CALM    29.90F
#ENTERPRISE HS  N/A         46  43  89  CALM    29.98S
#IMNAHA SCHOOL  N/A         50  48  93  N1      29.96S
#IMNAHA 10S     N/A         44  42  93  CALM    29.95F
#JOSEPH 3N      N/A         44  39  82  CALM    29.98F
#JOSEPH 3W      N/A         41  41  100 CALM    29.80F
#LOSTINE        N/A         45  41  86  CALM    29.74F
#MT HOWARD 8000 N/A         30  N/A N/A CALM    29.96S
#PROMISE 1S     N/A         43  41  93  CALM    30.02F
#WALLOWA SCHOOL N/A         46  44  93  CALM    29.93F



$$



USA.gov is the U.S. government's official web portal to all federal, state and local government web resources and services.